• In Spain
  • List of Countries
  • For 7 days
  • Water Temperature
  • Satellite Maps
  • Weather Map
  • Weather Widgets
  • user-avatar
    Login

    Hourly Weather Dyache

    Today, 20 July, Friday

    Time Temperature Precipitation Wind Pressure Humidity
    00:00 +17°C° 0 mm 0 mps 734 mmHg 95%
    01:00 +17°C° 0 mm 0 mps 734 mmHg 95%
    02:00 +16°C° 0 mm 0 mps 734 mmHg 96%
    03:00 +17°C° 0 mm 0 mps 734 mmHg 96%
    04:00 +17°C° 0 mm 0 mps 734 mmHg 96%
    05:00 +18°C° 0 mm 0 mps 734 mmHg 96%
    06:00 +21°C° 0 mm 1 mps 735 mmHg 92%
    07:00 +22°C° 0 mm 1 mps 735 mmHg 89%
    08:00 +23°C° 0 mm 1 mps 735 mmHg 85%
    09:00 +24°C° 0.1 mm 1 mps 735 mmHg 81%
    10:00 +25°C° 0.1 mm 2 mps 735 mmHg 76%
    11:00 +26°C° 0.1 mm 2 mps 735 mmHg 72%
    12:00 +27°C° 0.3 mm 2 mps 735 mmHg 71%
    13:00 +27°C° 0.3 mm 2 mps 735 mmHg 71%
    14:00 +27°C° 0.3 mm 2 mps 735 mmHg 70%
    15:00 +27°C° 0.1 mm 2 mps 735 mmHg 72%
    16:00 +27°C° 0.1 mm 2 mps 735 mmHg 73%
    17:00 +27°C° 0.1 mm 2 mps 735 mmHg 75%
    18:00 +26°C° 0 mm 2 mps 735 mmHg 79%
    19:00 +24°C° 0 mm 1 mps 735 mmHg 83%
    20:00 +22°C° 0 mm 1 mps 735 mmHg 87%
    21:00 +22°C° 0.1 mm 1 mps 736 mmHg 88%
    22:00 +21°C° 0.1 mm 1 mps 736 mmHg 89%
    23:00 +21°C° 0.1 mm 1 mps 736 mmHg 90%

    Tomorrow, 21 July, Saturday

    Time Temperature Precipitation Wind Pressure Humidity
    00:00 +21°C° 0 mm 1 mps 736 mmHg 91%
    01:00 +20°C° 0 mm 1 mps 736 mmHg 91%
    02:00 +18°C° 0 mm 0 mps 736 mmHg 91%
    03:00 +18°C° 0.1 mm 0 mps 736 mmHg 91%
    04:00 +19°C° 0.1 mm 0 mps 736 mmHg 91%
    05:00 +19°C° 0.1 mm 0 mps 736 mmHg 91%
    06:00 +20°C° 0.3 mm 0 mps 736 mmHg 87%
    07:00 +21°C° 0.3 mm 0 mps 736 mmHg 84%
    08:00 +24°C° 0.3 mm 1 mps 737 mmHg 81%
    09:00 +25°C° 0.5 mm 1 mps 737 mmHg 77%
    10:00 +26°C° 0.5 mm 1 mps 737 mmHg 73%
    11:00 +27°C° 0.5 mm 1 mps 737 mmHg 69%
    12:00 +27°C° 0.7 mm 1 mps 737 mmHg 68%
    13:00 +27°C° 0.7 mm 1 mps 736 mmHg 67%
    14:00 +28°C° 0.7 mm 1 mps 736 mmHg 66%
    15:00 +27°C° 0.4 mm 1 mps 736 mmHg 68%
    16:00 +27°C° 0.4 mm 1 mps 736 mmHg 70%
    17:00 +27°C° 0.4 mm 1 mps 736 mmHg 72%
    18:00 +26°C° 0.1 mm 1 mps 736 mmHg 78%
    19:00 +24°C° 0.1 mm 1 mps 736 mmHg 83%
    20:00 +22°C° 0.1 mm 1 mps 736 mmHg 88%
    21:00 +22°C° 0 mm 1 mps 736 mmHg 89%
    22:00 +21°C° 0 mm 1 mps 736 mmHg 91%
    23:00 +21°C° 0 mm 1 mps 736 mmHg 92%

    Day after tomorrow, 22 July, Sunday

    Time Temperature Precipitation Wind Pressure Humidity
    00:00 +21°C° 0 mm 1 mps 736 mmHg 92%
    01:00 +20°C° 0 mm 1 mps 736 mmHg 92%
    02:00 +18°C° 0 mm 0 mps 736 mmHg 92%
    03:00 +20°C° 0 mm 1 mps 736 mmHg 92%
    04:00 +20°C° 0 mm 1 mps 736 mmHg 93%
    05:00 +21°C° 0 mm 1 mps 736 mmHg 93%
    06:00 +22°C° 0 mm 1 mps 736 mmHg 88%
    07:00 +24°C° 0 mm 1 mps 737 mmHg 84%
    08:00 +25°C° 0 mm 1 mps 737 mmHg 79%
    09:00 +26°C° 0.6 mm 2 mps 737 mmHg 75%
    10:00 +27°C° 0.6 mm 2 mps 737 mmHg 70%
    11:00 +28°C° 0.6 mm 2 mps 736 mmHg 66%
    12:00 +28°C° 0.7 mm 2 mps 736 mmHg 67%
    13:00 +28°C° 0.7 mm 2 mps 736 mmHg 67%
    14:00 +28°C° 0.7 mm 2 mps 736 mmHg 68%
    15:00 +28°C° 0.6 mm 3 mps 736 mmHg 73%
    16:00 +27°C° 0.6 mm 3 mps 736 mmHg 77%
    17:00 +27°C° 0.6 mm 3 mps 736 mmHg 81%
    18:00 +25°C° 0.7 mm 3 mps 736 mmHg 85%
    19:00 +24°C° 0.7 mm 3 mps 736 mmHg 88%
    20:00 +22°C° 0.7 mm 3 mps 736 mmHg 92%
    21:00 +21°C° 1.5 mm 3 mps 736 mmHg 93%
    22:00 +21°C° 1.5 mm 3 mps 736 mmHg 94%
    23:00 +21°C° 1.5 mm 3 mps 736 mmHg 94%

    23 July, Monday

    Time Temperature Precipitation Wind Pressure Humidity
    00:00 +20°C° 0.3 mm 3 mps 736 mmHg 95%
    01:00 +20°C° 0.3 mm 3 mps 736 mmHg 96%
    02:00 +20°C° 0.3 mm 3 mps 736 mmHg 96%
    03:00 +20°C° 0.7 mm 4 mps 736 mmHg 96%
    04:00 +20°C° 0.7 mm 4 mps 736 mmHg 96%
    05:00 +20°C° 0.7 mm 4 mps 736 mmHg 96%
    06:00 +20°C° 0.5 mm 4 mps 736 mmHg 95%
    07:00 +20°C° 0.5 mm 4 mps 737 mmHg 95%
    08:00 +20°C° 0.5 mm 4 mps 737 mmHg 94%
    09:00 +21°C° 0.2 mm 4 mps 737 mmHg 93%
    10:00 +21°C° 0.2 mm 4 mps 737 mmHg 92%
    11:00 +21°C° 0.2 mm 4 mps 737 mmHg 91%
    12:00 +22°C° 0.3 mm 4 mps 737 mmHg 90%
    13:00 +22°C° 0.3 mm 4 mps 737 mmHg 89%
    14:00 +23°C° 0.3 mm 4 mps 737 mmHg 87%
    15:00 +23°C° 0.3 mm 4 mps 737 mmHg 87%
    16:00 +23°C° 0.3 mm 4 mps 737 mmHg 86%
    17:00 +24°C° 0.3 mm 3 mps 737 mmHg 86%
    18:00 +22°C° 0.3 mm 3 mps 737 mmHg 89%
    19:00 +21°C° 0.3 mm 2 mps 737 mmHg 91%
    20:00 +20°C° 0.3 mm 2 mps 737 mmHg 94%
    21:00 +20°C° 0 mm 2 mps 737 mmHg 95%
    22:00 +20°C° 0 mm 2 mps 737 mmHg 95%
    23:00 +19°C° 0 mm 2 mps 737 mmHg 95%

    24 July, Tuesday

    Time Temperature Precipitation Wind Pressure Humidity
    00:00 +19°C° 0 mm 2 mps 737 mmHg 95%
    01:00 +19°C° 0 mm 2 mps 738 mmHg 95%
    02:00 +18°C° 0 mm 2 mps 738 mmHg 95%
    03:00 +18°C° 0 mm 2 mps 738 mmHg 96%
    04:00 +18°C° 0 mm 2 mps 738 mmHg 96%
    05:00 +19°C° 0 mm 2 mps 738 mmHg 96%
    06:00 +20°C° 0 mm 3 mps 738 mmHg 91%
    07:00 +22°C° 0 mm 3 mps 739 mmHg 87%
    08:00 +24°C° 0 mm 3 mps 739 mmHg 83%
    09:00 +25°C° 0.2 mm 4 mps 739 mmHg 78%
    10:00 +26°C° 0.2 mm 4 mps 739 mmHg 74%
    11:00 +27°C° 0.2 mm 4 mps 739 mmHg 70%
    12:00 +27°C° 0.8 mm 4 mps 739 mmHg 70%
    13:00 +28°C° 0.8 mm 4 mps 739 mmHg 70%
    14:00 +28°C° 0.8 mm 5 mps 739 mmHg 71%
    15:00 +27°C° 0.8 mm 4 mps 739 mmHg 73%
    16:00 +27°C° 0.8 mm 3 mps 739 mmHg 76%
    17:00 +27°C° 0.8 mm 3 mps 739 mmHg 79%
    18:00 +26°C° 0.2 mm 3 mps 739 mmHg 82%
    19:00 +24°C° 0.2 mm 2 mps 740 mmHg 85%
    20:00 +23°C° 0.2 mm 2 mps 740 mmHg 89%
    21:00 +21°C° 0 mm 2 mps 740 mmHg 89%
    22:00 +21°C° 0 mm 2 mps 740 mmHg 90%
    23:00 +20°C° 0 mm 2 mps 740 mmHg 91%

    25 July, Wednesday

    Time Temperature Precipitation Wind Pressure Humidity
    00:00 +20°C° 0 mm 2 mps 740 mmHg 91%
    01:00 +20°C° 0 mm 2 mps 740 mmHg 92%
    02:00 +19°C° 0 mm 3 mps 741 mmHg 93%
    03:00 +19°C° 0 mm 3 mps 741 mmHg 93%
    04:00 +19°C° 0 mm 2 mps 741 mmHg 93%
    05:00 +20°C° 0 mm 2 mps 741 mmHg 93%
    06:00 +21°C° 0.4 mm 3 mps 742 mmHg 88%
    07:00 +24°C° 0.4 mm 3 mps 742 mmHg 83%
    08:00 +26°C° 0.4 mm 3 mps 742 mmHg 78%
    09:00 +27°C° 0.6 mm 3 mps 742 mmHg 74%
    10:00 +27°C° 0.6 mm 4 mps 742 mmHg 70%
    11:00 +28°C° 0.6 mm 4 mps 742 mmHg 66%
    12:00 +28°C° 0.6 mm 4 mps 742 mmHg 67%
    13:00 +28°C° 0.6 mm 5 mps 742 mmHg 69%
    14:00 +28°C° 0.6 mm 5 mps 742 mmHg 71%
    15:00 +27°C° 0.4 mm 5 mps 742 mmHg 74%
    16:00 +26°C° 0.4 mm 5 mps 742 mmHg 78%
    17:00 +25°C° 0.4 mm 5 mps 742 mmHg 81%
    18:00 +23°C° 0.1 mm 5 mps 742 mmHg 83%
    19:00 +21°C° 0.1 mm 5 mps 743 mmHg 85%
    20:00 +20°C° 0.1 mm 5 mps 743 mmHg 87%
    21:00 +19°C° 0 mm 4 mps 743 mmHg 88%
    22:00 +18°C° 0 mm 4 mps 743 mmHg 89%
    23:00 +17°C° 0 mm 4 mps 743 mmHg 89%
    Show more